DW5995 Weather Reports


time (UTC)temp
F
wind
direction
speed
knots
gust
knots
rain 1hr
in
rain 24hr
in
rain mn
in
humidity
%
barometer
mb
20260507083006 64 184 0.0 2.6 0.00 0.33 0.01 76 1013.9
20260507082504 64 184 0.0 2.6 0.00 0.33 0.01 80 1013.8
20260507082003 64 150 0.0 2.6 0.00 0.33 0.01 81 1013.7
20260507081502 63 150 0.0 2.6 0.00 0.33 0.01 82 1013.8
20260507081002 62 221 0.0 0.9 0.00 0.33 0.01 84 1013.9
20260507080600 62 160 0.0 0.9 0.00 0.33 0.01 88 1013.9
20260507080058 61 159 0.0 0.9 0.00 0.33 0.01 87 1013.9
20260507075559 60 159 0.0 2.6 0.00 0.35 0.01 87 1013.9
20260507075059 60 159 0.0 2.6 0.00 0.35 0.01 88 1013.9
20260507074600 60 151 0.0 1.7 0.00 0.35 0.01 91 1013.9
20260507074053 59 151 0.0 1.7 0.00 0.35 0.01 90 1013.8
20260507073553 59 151 0.0 1.7 0.00 0.35 0.01 90 1013.7
20260507073053 59 151 0.0 1.7 0.00 0.35 0.01 91 1013.8
20260507072552 59 151 0.0 0.9 0.00 0.35 0.01 91 1013.7
20260507072055 59 151 0.0 2.6 0.00 0.35 0.01 91 1013.7
20260507071551 59 151 0.0 2.6 0.00 0.35 0.01 91 1013.6
20260507071051 59 137 0.0 2.6 0.00 0.35 0.01 92 1013.5
20260507070550 59 121 0.0 1.7 0.00 0.35 0.01 92 1013.5
20260507065548 59 121 0.0 2.6 0.00 0.69 0.01 95 1013.4
20260507065049 59 121 0.0 1.7 0.00 0.69 0.01 94 1013.4
20260507064553 59 121 0.0 0.9 0.00 0.69 0.01 96 1013.3
20260507064047 58 121 0.0 0.0 0.00 0.69 0.01 97 1013.2
20260507063545 58 121 0.0 0.0 0.00 0.69 0.01 100 1013.2
20260507063043 58 121 0.0 0.0 0.00 0.69 0.01 99 1013.3
20260507062545 57 121 0.0 0.0 0.00 0.69 0.01 99 1013.3
20260507062040 57 121 0.0 0.0 0.00 0.69 0.01 100 1013.3
20260507061538 56 121 0.0 0.0 0.00 0.69 0.01 100 1013.3
20260507061038 56 121 0.0 0.0 0.00 0.69 0.01 99 1013.3
20260507060536 55 121 0.0 0.0 0.00 0.69 0.01 100 1013.3
20260507060040 55 121 0.0 0.0 0.00 0.69 0.01 100 1013.3
20260507055534 55 121 0.0 0.0 0.00 0.90 0.01 100 1013.2
20260507055033 55 121 0.0 0.9 0.00 0.90 0.01 100 1013.2
20260507054545 55 178 0.0 0.0 0.00 0.90 0.01 100 1013.1
20260507054034 54 178 0.0 0.0 0.00 0.90 0.01 100 1013.1
20260507053530 53 178 0.0 0.0 0.00 0.90 0.01 100 1013.0
20260507053029 53 178 0.0 0.0 0.00 0.90 0.01 99 1012.9
20260507052508 53 178 0.0 0.0 0.00 0.90 0.01 99 1012.9
20260507052008 52 178 0.0 0.0 0.00 0.90 0.01 99 1012.9